Dewpoint
34 35 34 34 32 32 31 30 28 29 28 29 28 30 34 35 36 36 39 39 40 39 40 38 40 40 36 33 34 33 29 29 33 34 33 31 31 29 30 30 30 30 29 27
34 35 35 32 32 31 31 31 30 29 27 30 27 35 36 37 38 39 39 39 39 40 40 40 40 37 36 36 38 39 38 39 39 37 35 33 30 31 31 29 28 26 25 26
31 34 33 26 29 30 30 29 29 28 30 36 36 36 37 38 39 39 40 40 40 40 40 40 40 36 36 38 39 40 40 38 39 39 38 37 32 28 27 25 24 23 23 23
31 29 26 30 31 29 30 31 32 36 38 39 40 41 40 39 40 39 39 40 40 39 38 38 37 38 39 40 41 39 38 37 38 39 36 27 27 26 23 22 21 21 22 23
31 29 29 31 32 31 29 28 38 37 37 38 41 40 39 40 41 40 40 40 39 39 38 38 37 38 39 39 40 40 37 35 28 27 25 25 23 21 21 20 19 21 22 23
28 24 24 27 31 36 34 29 40 41 42 41 40 35 35 40 41 40 41 40 37 38 37 37 37 38 37 34 36 25 24 24 25 25 23 21 20 19 19 19 19 22 23 26
19 27 28 32 34 40 28 32 39 43 43 42 39 39 41 41 40 39 38 36 36 36 37 37 35 31 27 16 19 23 25 25 24 23 21 20 20 20 18 19 22 19 18 21
29 30 25 36 35 29 34 39 40 40 40 40 41 41 38 38 38 37 36 36 36 36 35 34 31 27 13 16 20 24 24 24 23 23 21 20 18 18 19 20 19 17 14 18
31 29 35 36 35 37 37 38 41 41 41 41 41 39 35 31 36 35 35 35 36 36 34 32 23 20 22 23 24 25 25 25 24 23 23 19 18 19 20 20 18 17 21 19
32 33 34 36 36 37 38 40 42 43 43 39 38 36 30 34 33 34 35 35 35 33 29 29 23 23 23 27 27 24 25 25 25 24 22 20 20 21 20 17 16 20 19 21
34 35 35 36 37 39 41 45 45 42 40 39 34 34 34 33 33 33 34 34 35 31 30 26 26 26 26 26 26 26 26 25 25 24 22 21 21 20 22 21 19 22 22 24
33 35 36 37 39 41 42 42 43 40 34 34 35 34 33 33 33 33 33 35 34 32 24 24 25 24 27 27 26 26 26 25 23 21 21 22 21 21 23 25 25 24 24 27
38 38 38 40 40 38 38 39 32 31 34 35 35 33 33 32 32 33 35 34 29 23 24 25 25 24 27 27 27 25 23 25 23 22 21 19 20 19 17 19 23 23 24 25
38 39 40 42 38 35 31 30 31 30 35 34 33 33 33 33 33 32 29 25 24 24 24 23 24 24 26 27 25 22 21 22 18 18 17 17 16 20 13 16 13 15 23 23
39 41 38 34 30 27 28 29 30 32 34 34 34 33 32 31 30 29 27 26 24 26 26 25 22 24 28 27 26 25 25 23 17 15 13 14 19 13 12 12 11 16 21 20
34 32 30 29 29 29 28 29 32 34 34 34 34 32 31 26 26 25 27 26 24 25 27 24 21 26 28 27 26 24 24 19 18 19 16 18 15 14 12 12 11 19 19 18
33 32 30 28 29 29 30 32 35 34 33 32 29 26 26 24 23 25 27 25 22 22 22 20 24 29 29 27 25 22 21 25 24 25 23 20 14 12 17 10 10 18 19 20
31 29 27 27 27 31 30 31 30 30 31 30 23 21 19 17 21 22 23 22 22 20 20 23 28 27 24 28 25 23 20 25 24 20 20 13 13 17 12 11 9 17 19 19
26 26 27 28 31 31 30 30 29 30 29 27 23 23 20 23 23 22 20 15 13 18 28 28 28 27 27 26 24 18 17 22 21 18 17 16 14 12 12 8 8 14 18 17
28 29 31 31 32 29 29 27 32 31 28 25 23 21 27 25 20 19 26 23 27 29 27 26 27 26 26 26 21 20 16 15 17 19 17 13 12 12 13 10 13 12 14 16
29 30 29 28 29 27 23 31 31 27 28 27 22 24 23 21 23 27 17 23 26 27 27 27 27 27 29 27 23 19 17 20 20 15 16 15 7 9 9 6 13 11 11 14
30 28 27 27 32 33 33 32 30 29 29 25 25 21 25 23 19 18 14 26 26 27 27 26 27 28 27 22 20 26 25 24 16 18 17 12 8 8 6 9 13 10 9 11
31 31 30 26 31 33 33 33 32 30 28 27 24 28 29 22 21 18 21 26 26 27 26 27 29 28 26 26 26 27 26 23 16 15 17 13 9 4 7 9 12 9 8 10
30 30 30 28 29 31 31 31 30 28 28 27 30 30 23 20 21 27 28 28 28 28 28 29 27 26 25 25 27 26 26 24 19 18 18 13 11 6 8 10 11 9 7 11
29 29 29 24 28 29 30 31 28 27 28 29 30 30 29 29 28 27 24 27 28 28 27 28 27 25 25 26 27 27 23 22 18 18 18 15 11 5 9 11 10 9 10 10
29 29 29 30 32 32 32 29 29 29 29 29 31 31 31 27 27 24 17 27 28 27 28 29 28 27 26 27 27 26 20 17 16 15 17 16 13 7 5 8 9 12 10 8
29 27 28 31 31 32 32 31 32 31 31 29 27 30 29 28 27 26 26 27 27 27 28 29 29 29 27 27 21 23 24 18 21 16 16 17 16 12 7 6 8 10 8 7
Lifted_Index
3 3 3 3 3 3 3 3 2 2 1 1 1 2 2 2 2 2 2 2 3 4 4 5 5 5 5 5 6 6 7 8 9 9 9 8 8 7 8 8 9 9 9 9
3 3 3 3 3 3 3 3 2 2 1 1 1 2 2 2 2 2 2 3 3 4 4 5 5 5 5 6 6 7 7 8 8 8 7 7 7 7 8 8 8 9 9 10
3 3 3 3 3 3 3 2 2 2 2 2 2 2 2 1 2 2 2 3 3 4 5 5 5 6 6 6 7 7 7 7 6 6 6 6 7 7 8 8 9 9 10 11
3 3 3 3 3 3 3 2 2 2 2 2 2 2 2 2 2 2 3 3 3 4 5 5 5 6 6 7 7 7 6 6 6 6 6 7 7 7 8 9 10 10 11 11
4 4 4 4 3 3 3 3 2 2 2 2 2 2 2 2 2 3 3 3 4 5 5 5 5 6 6 7 7 7 6 6 6 7 7 7 8 8 9 10 11 11 11 11
4 4 3 3 3 2 2 3 2 2 2 2 2 2 3 3 3 3 3 3 4 5 5 5 5 6 7 7 7 7 7 6 7 7 8 8 9 10 10 11 11 11 11 11
3 3 3 2 2 1 2 2 2 1 2 2 2 2 3 3 3 3 3 3 4 4 5 5 6 6 7 7 7 7 7 7 7 8 9 9 10 10 11 11 11 11 11 11
3 3 2 2 1 1 1 1 1 1 2 2 2 2 3 4 4 4 4 4 4 5 5 6 6 7 7 7 7 7 7 8 8 9 10 10 10 10 10 11 11 11 11 10
3 3 2 1 1 1 1 1 1 1 1 2 2 3 4 5 4 4 4 5 5 5 6 6 7 7 7 7 7 7 8 9 9 10 10 10 10 10 11 11 11 11 11 10
3 2 2 2 2 2 1 1 1 1 2 2 3 4 5 5 5 5 5 6 5 6 6 7 7 7 6 6 7 8 9 10 10 10 10 10 10 11 11 12 12 11 11 10
3 2 2 2 2 2 1 1 2 2 3 3 4 4 4 4 5 6 6 6 6 6 6 6 6 6 6 7 8 9 9 10 10 10 9 10 10 11 11 12 12 11 11 11
2 2 2 2 2 2 2 2 3 3 4 4 4 4 4 5 5 6 6 6 6 6 6 6 6 7 7 8 8 9 9 9 9 9 9 9 9 10 10 11 11 11 11 11
2 2 2 2 2 2 3 3 4 4 4 4 4 4 4 5 5 6 6 6 6 6 6 6 7 7 8 8 8 9 9 9 9 8 8 8 8 8 9 9 10 10 11 11
1 1 2 2 2 3 4 5 4 4 3 3 3 4 5 5 5 5 5 5 6 6 6 6 7 8 8 8 8 8 8 8 8 7 7 7 7 7 8 9 9 10 11 11
2 2 2 3 3 4 5 5 4 3 2 3 3 4 5 6 6 6 5 5 6 6 7 7 7 8 7 7 8 8 7 7 6 6 6 6 6 7 8 9 10 10 11 11
2 2 3 3 4 4 4 4 3 3 2 3 3 4 5 6 6 6 6 6 6 7 7 8 8 7 7 7 7 6 6 5 5 5 5 5 6 7 8 9 10 11 11 11
3 3 4 4 4 4 4 3 3 3 2 3 3 4 5 6 6 6 7 7 7 8 8 8 7 7 6 6 5 5 4 4 4 4 5 6 7 8 9 10 11 11 12 12
4 5 5 4 4 4 3 3 3 3 3 3 3 4 5 5 6 7 7 8 8 8 7 7 7 6 5 5 4 4 4 4 4 4 5 6 7 9 10 11 12 12 12 13
4 5 5 4 4 3 3 3 3 3 3 3 3 4 5 6 6 7 7 8 8 8 7 7 7 6 5 4 4 4 4 4 4 4 5 6 7 9 10 11 12 13 13 13
4 4 4 4 3 3 2 2 2 2 3 3 3 5 5 6 7 7 8 8 8 8 8 8 7 6 5 4 4 4 4 4 4 4 5 6 8 9 11 12 13 13 14 13
3 3 3 3 2 2 3 2 2 2 3 3 4 5 6 7 7 8 8 8 8 9 9 8 7 6 5 5 4 4 4 4 4 4 5 6 8 9 10 12 13 14 14 14
2 2 2 2 2 2 3 2 2 2 3 4 5 6 7 7 7 8 8 8 8 9 8 8 7 6 5 4 4 4 4 4 4 4 5 6 8 9 10 11 13 14 14 14
2 2 1 1 1 2 3 3 2 3 3 4 6 6 7 7 7 8 8 8 8 8 8 7 6 5 5 4 4 4 4 4 4 5 5 6 8 9 10 11 13 14 15 15
2 1 1 1 1 2 2 2 2 3 4 5 6 6 7 7 8 8 8 8 8 8 7 7 6 5 5 4 4 4 4 4 4 5 5 6 8 9 10 11 12 14 14 15
2 1 1 1 1 2 2 2 2 3 5 5 6 6 7 7 8 8 7 7 7 7 7 7 6 6 5 4 4 4 4 4 4 5 5 6 7 9 10 11 12 13 14 15
1 1 1 1 1 1 1 2 3 4 5 5 5 6 6 7 8 7 7 7 7 7 7 7 7 6 6 5 4 4 4 4 4 5 5 6 7 8 9 10 11 13 14 14
1 1 1 1 1 1 1 2 3 4 4 5 5 6 6 7 7 7 7 7 7 7 7 7 7 6 6 5 5 4 4 4 4 5 5 6 7 8 9 10 11 12 13 14